Regional Weather Roundup
Issued by NWS

Home | Current Version | Previous Version | Graphics & Text | Print | Product List | Glossary On
Versions: 1 2 3 4 5 6 7 8 9 10 11 12 13 14 15 16 17 18 19 20 21 22 23 24 25 26 27 28 29 30 31 32 33 34 35 36 37 38 39 40 41 42 43 44 45 46 47 48 49 50
000
ASUS45 KTFX 301810
RWRMT
MONTANA REGIONAL WEATHER ROUNDUP
NATIONAL WEATHER SERVICE GREAT FALLS MT
1200 PM MDT SAT MAY 30 2015

NOTE: "FAIR" INDICATES FEW OR NO CLOUDS BELOW 12000 FEET WITH NO
SIGNIFICANT WEATHER AND/OR OBSTRUCTIONS TO VISIBILITY.

MTZ001>007-043-301900-
WEST OF THE DIVIDE

CITY           SKY/WX    TMP DP  RH WIND       PRES   REMARKS
KALISPELL      CLOUDY    61  52  72 CALM      30.01F
MISSOULA       CLOUDY    64  51  62 SE6       30.03F
BUTTE          CLOUDY    64  42  44 VRB7      30.09F
MULLAN PASS    LGT RAIN  54  45  71 SE3       30.08R
DEER LODGE       N/A     61  48  63 NW6       30.11R
EUREKA           N/A     66  54  63 S9        29.98F
HAMILTON         N/A     61  50  67 S6        30.05S
LIBBY            N/A     61  55  82 W3        30.00S
PLAINS           N/A     67  53  60 CALM      30.00F
RONAN            N/A     61  53  74 SE1       30.07S
THOMPSON FALLS   N/A     69  53  56 NE15      29.99F
$$

MTZ008-052>055-301900-
SOUTHWEST MONTANA

CITY           SKY/WX    TMP DP  RH WIND       PRES   REMARKS
BOZEMAN        CLOUDY    65  53  65 NW5       30.06S
DILLON         CLOUDY    62  46  55 SW6       30.10R
W YELLOWSTONE  CLOUDY    59  39  47 SW14G20   30.19S
THREE FORKS      N/A     65  39  38 SE2       30.04F
$$

MTZ009-010-012-014-046-048-049-054-301900-
EAST SLOPES AND CENTRAL MONTANA

CITY           SKY/WX    TMP DP  RH WIND       PRES   REMARKS
CUT BANK       CLOUDY    56  47  71 SE6       30.03S
GREAT FALLS    LGT RAIN  58  54  86 N6        30.03S
MALMSTROM AFB  LGT RAIN  57  53  85 N9        30.04R
HELENA         CLOUDY    62  51  67 CALM      30.02F
CONRAD           N/A     55  52  90 N7        30.06R
$$

MTZ011-013-016-021-045-047-050-051-301900-
NORTH CENTRAL MONTANA

CITY           SKY/WX    TMP DP  RH WIND       PRES   REMARKS
HAVRE          MOSUNNY   70  46  42 E16       29.97F
LEWISTOWN      PTSUNNY   70  48  45 E10       30.00F
N BAR RANCH    FAIR      66  48  52 S14       30.05F
CHINOOK          N/A     64  43  45 E13G22    30.01F
FORT BENTON      N/A     64  45  48 CALM      30.02S
$$

MTZ017>020-022>027-061-062-301900-
NORTHEAST MONTANA

CITY           SKY/WX    TMP DP  RH WIND       PRES   REMARKS
GLASGOW        MOSUNNY   64  38  38 SE23G31   30.10F
JORDAN           N/A     67  41  38 SE17G26   30.06F
SIDNEY         SUNNY     63  34  34 SE18G30   30.21F
WOLF POINT     MOSUNNY   63  38  39 SE13G24   30.16F
MALTA            N/A     66  41  40 E15       30.02F
PLENTYWOOD       N/A     57  30  35 SE22G28   30.23F
POPLAR           N/A     61  34  36 E17       30.18F
SCOBEY           N/A     59  30  33 E20       30.17F
$$

MTZ028>42-056>058-301900-
SOUTHCENTRAL AND SOUTHEAST MONTANA

CITY           SKY/WX    TMP DP  RH WIND       PRES   REMARKS
BAKER          LGT RAIN  61  37  41 SE28G33   30.19F
BILLINGS       CLOUDY    65  50  58 E6        30.05F
LIVINGSTON     PTSUNNY   66  51  58 E7        30.04F
MILES CITY     MOSUNNY   68  42  38 SE22G29   30.09F
BIG TIMBER       N/A     63  50  63 SE7       30.06F
EKALAKA          N/A     59  39  47 SE21      30.12F
LAUREL           N/A     64  51  62 NE5       30.03F
ROUNDUP          N/A     67  47  48 SE7       29.95F
$$

REGIONAL REPORTS...DAKOTAS

CITY           SKY/WX    TMP DP  RH WIND       PRES   REMARKS
WILLISTON      SUNNY     57  35  43 SE17G23   30.26F
MINOT          MOSUNNY   51  28  41 E14G20    30.35F
DICKINSON      MOSUNNY   56  37  49 SE17G29   30.25F
BEACH          FAIR      57  34  41 SE25G36   30.20F
CROSBY         FAIR      55  32  41 SE17G25   30.29F
WATFORD CITY   FAIR      55  37  50 SE17G28   30.25F
BISMARCK       MOSUNNY   52  31  44 E6        30.36F
GRAND FORKS    MOSUNNY   49  30  48 NE10      30.40F
FARGO          SUNNY     50  35  56 N9        30.36F
BUFFALO SD       N/A     58  38  47 SE22G33   30.15F
RAPID CITY     MOSUNNY   58  44  60 S16G26    30.25F
$$

REGIONAL REPORTS...WYOMING/IDAHO/WASHINGTON

CITY           SKY/WX    TMP DP  RH WIND       PRES   REMARKS
GILLETTE       SUNNY     57  48  72 SE17      30.14F
SHERIDAN       MOSUNNY   67  51  56 N5        30.08F
BUFFALO WY     SUNNY     67  49  52 SE9       30.12F
CODY           PTSUNNY   72  43  35 SW10      30.09F
YELLOWSTONE LA   N/A     58  37  45 MISG      30.26F
IDAHO FALLS    PTSUNNY   69  50  50 CALM      30.10F
SALMON         CLOUDY    61  48  63 SW3       30.09S
BOISE          CLOUDY    77  47  34 NW10      29.96S
SPOKANE        PTSUNNY   73  55  53 E5        29.90S
$$

REGIONAL REPORTS...ALBERTA

CITY           SKY/WX    TMP DP  RH WIND       PRES   REMARKS
EDMONTON       CLOUDY    54  39  58 E20       30.06F
CALGARY        CLOUDY    54  45  71 S9        30.02S
MEDICINE HAT   CLOUDY    64  39  39 NW5       30.01F
$$

REGIONAL REPORTS...SASKATCHEWAN

CITY           SKY/WX    TMP DP  RH WIND       PRES   REMARKS
SWIFT CURRENT  CLOUDY    59  34  38 SE21G31   30.11F
SASKATOON      PTSUNNY   55  32  41 SE15      30.26F
$$


USA.gov is the U.S. government's official web portal to all federal, state and local government web resources and services.